• In Hungary
  • List of Countries
  • For 7 days
  • Water Temperature
  • Satellite Maps
  • Weather Map
  • News
  • Weather Widgets
  • user-avatar
    Login

    Hourly Weather Golden Sands

    Today, 19 October, Thursday

    Time Temperature Precipitation Wind Pressure Humidity
    00:00 +17°C° 0 mm 2 mps 764 mmHg 65%
    01:00 +17°C° 0 mm 2 mps 763 mmHg 65%
    02:00 +16°C° 0 mm 2 mps 763 mmHg 66%
    03:00 +16°C° 0 mm 2 mps 763 mmHg 66%
    04:00 +16°C° 0 mm 1 mps 763 mmHg 66%
    05:00 +16°C° 0 mm 1 mps 763 mmHg 66%
    06:00 +18°C° 0 mm 1 mps 763 mmHg 64%
    07:00 +18°C° 0 mm 1 mps 763 mmHg 61%
    08:00 +18°C° 0 mm 2 mps 763 mmHg 59%
    09:00 +20°C° 0 mm 2 mps 763 mmHg 53%
    10:00 +21°C° 0 mm 2 mps 763 mmHg 47%
    11:00 +24°C° 0 mm 3 mps 763 mmHg 42%
    12:00 +24°C° 0 mm 3 mps 762 mmHg 41%
    13:00 +25°C° 0 mm 3 mps 762 mmHg 41%
    14:00 +25°C° 0 mm 3 mps 762 mmHg 40%
    15:00 +24°C° 0 mm 3 mps 762 mmHg 46%
    16:00 +22°C° 0 mm 3 mps 761 mmHg 53%
    17:00 +20°C° 0 mm 3 mps 761 mmHg 59%
    18:00 +20°C° 0 mm 3 mps 761 mmHg 64%
    19:00 +19°C° 0 mm 3 mps 762 mmHg 69%
    20:00 +18°C° 0 mm 3 mps 762 mmHg 75%
    21:00 +18°C° 0 mm 3 mps 762 mmHg 77%
    22:00 +17°C° 0 mm 3 mps 762 mmHg 79%
    23:00 +17°C° 0 mm 3 mps 762 mmHg 80%

    Tomorrow, 20 October, Friday

    Time Temperature Precipitation Wind Pressure Humidity
    00:00 +17°C° 0 mm 3 mps 762 mmHg 81%
    01:00 +17°C° 0 mm 3 mps 762 mmHg 82%
    02:00 +17°C° 0 mm 3 mps 762 mmHg 82%
    03:00 +16°C° 0 mm 2 mps 761 mmHg 81%
    04:00 +16°C° 0 mm 2 mps 761 mmHg 79%
    05:00 +16°C° 0 mm 2 mps 761 mmHg 78%
    06:00 +17°C° 0 mm 2 mps 761 mmHg 73%
    07:00 +17°C° 0 mm 2 mps 762 mmHg 67%
    08:00 +18°C° 0 mm 2 mps 762 mmHg 62%
    09:00 +20°C° 0 mm 2 mps 762 mmHg 55%
    10:00 +23°C° 0 mm 2 mps 762 mmHg 48%
    11:00 +24°C° 0 mm 2 mps 762 mmHg 40%
    12:00 +25°C° 0 mm 2 mps 762 mmHg 38%
    13:00 +26°C° 0 mm 2 mps 762 mmHg 36%
    14:00 +26°C° 0 mm 2 mps 761 mmHg 34%
    15:00 +25°C° 0 mm 2 mps 761 mmHg 37%
    16:00 +24°C° 0 mm 2 mps 761 mmHg 41%
    17:00 +22°C° 0 mm 3 mps 761 mmHg 44%
    18:00 +21°C° 0 mm 3 mps 761 mmHg 47%
    19:00 +20°C° 0 mm 3 mps 761 mmHg 49%
    20:00 +19°C° 0 mm 2 mps 762 mmHg 51%
    21:00 +19°C° 0 mm 2 mps 762 mmHg 52%
    22:00 +19°C° 0 mm 2 mps 762 mmHg 52%
    23:00 +18°C° 0 mm 2 mps 762 mmHg 53%

    Day after tomorrow, 21 October, Saturday

    Time Temperature Precipitation Wind Pressure Humidity
    00:00 +18°C° 0 mm 2 mps 762 mmHg 53%
    01:00 +18°C° 0 mm 2 mps 762 mmHg 54%
    02:00 +18°C° 0 mm 2 mps 762 mmHg 55%
    03:00 +17°C° 0 mm 2 mps 762 mmHg 58%
    04:00 +17°C° 0 mm 3 mps 761 mmHg 61%
    05:00 +17°C° 0 mm 3 mps 761 mmHg 63%
    06:00 +17°C° 0 mm 3 mps 761 mmHg 62%
    07:00 +18°C° 0 mm 3 mps 762 mmHg 61%
    08:00 +18°C° 0 mm 3 mps 762 mmHg 59%
    09:00 +20°C° 0 mm 3 mps 762 mmHg 54%
    10:00 +21°C° 0 mm 3 mps 762 mmHg 49%
    11:00 +24°C° 0 mm 3 mps 762 mmHg 44%
    12:00 +24°C° 0 mm 3 mps 762 mmHg 43%
    13:00 +25°C° 0 mm 3 mps 762 mmHg 42%
    14:00 +25°C° 0 mm 3 mps 762 mmHg 41%
    15:00 +24°C° 0 mm 3 mps 762 mmHg 47%
    16:00 +22°C° 0 mm 3 mps 761 mmHg 52%
    17:00 +21°C° 0 mm 4 mps 761 mmHg 58%
    18:00 +19°C° 0 mm 3 mps 762 mmHg 65%
    19:00 +18°C° 0 mm 3 mps 762 mmHg 72%
    20:00 +17°C° 0 mm 3 mps 762 mmHg 79%
    21:00 +17°C° 0 mm 3 mps 762 mmHg 82%
    22:00 +17°C° 0 mm 3 mps 762 mmHg 85%
    23:00 +16°C° 0 mm 3 mps 762 mmHg 88%

    22 October, Sunday

    Time Temperature Precipitation Wind Pressure Humidity
    00:00 +16°C° 0 mm 3 mps 762 mmHg 88%
    01:00 +16°C° 0 mm 3 mps 762 mmHg 89%
    02:00 +16°C° 0 mm 3 mps 762 mmHg 89%
    03:00 +16°C° 0 mm 3 mps 762 mmHg 89%
    04:00 +16°C° 0 mm 3 mps 762 mmHg 89%
    05:00 +16°C° 0 mm 3 mps 762 mmHg 89%
    06:00 +16°C° 0.1 mm 3 mps 762 mmHg 87%
    07:00 +17°C° 0.1 mm 3 mps 763 mmHg 84%
    08:00 +17°C° 0.1 mm 3 mps 763 mmHg 82%
    09:00 +18°C° 0.1 mm 4 mps 763 mmHg 75%
    10:00 +19°C° 0.1 mm 4 mps 763 mmHg 68%
    11:00 +20°C° 0.1 mm 4 mps 763 mmHg 60%
    12:00 +20°C° 0.1 mm 5 mps 763 mmHg 62%
    13:00 +20°C° 0.1 mm 5 mps 763 mmHg 63%
    14:00 +20°C° 0.1 mm 5 mps 762 mmHg 64%
    15:00 +19°C° 0 mm 5 mps 762 mmHg 67%
    16:00 +17°C° 0 mm 5 mps 762 mmHg 71%
    17:00 +16°C° 0 mm 5 mps 762 mmHg 74%
    18:00 +16°C° 0 mm 5 mps 762 mmHg 78%
    19:00 +15°C° 0 mm 5 mps 763 mmHg 82%
    20:00 +14°C° 0 mm 4 mps 763 mmHg 86%
    21:00 +14°C° 0 mm 4 mps 762 mmHg 88%
    22:00 +14°C° 0 mm 4 mps 762 mmHg 89%
    23:00 +14°C° 0 mm 3 mps 762 mmHg 91%

    23 October, Monday

    Time Temperature Precipitation Wind Pressure Humidity
    00:00 +14°C° 0 mm 3 mps 762 mmHg 92%
    01:00 +14°C° 0 mm 3 mps 761 mmHg 92%
    02:00 +13°C° 0 mm 3 mps 761 mmHg 92%
    03:00 +14°C° 0 mm 3 mps 761 mmHg 93%
    04:00 +14°C° 0 mm 3 mps 760 mmHg 93%
    05:00 +14°C° 0 mm 4 mps 760 mmHg 93%
    06:00 +14°C° 0 mm 4 mps 760 mmHg 91%
    07:00 +15°C° 0 mm 5 mps 760 mmHg 89%
    08:00 +15°C° 0 mm 5 mps 760 mmHg 87%
    09:00 +16°C° 0 mm 6 mps 759 mmHg 83%
    10:00 +16°C° 0 mm 6 mps 759 mmHg 80%
    11:00 +17°C° 0 mm 7 mps 759 mmHg 77%
    12:00 +17°C° 0.1 mm 7 mps 759 mmHg 75%
    13:00 +17°C° 0.1 mm 7 mps 758 mmHg 74%
    14:00 +17°C° 0.1 mm 7 mps 758 mmHg 72%
    15:00 +17°C° 0 mm 7 mps 758 mmHg 74%
    16:00 +16°C° 0 mm 7 mps 758 mmHg 77%
    17:00 +16°C° 0 mm 7 mps 758 mmHg 79%
    18:00 +16°C° 0.1 mm 7 mps 758 mmHg 80%
    19:00 +15°C° 0.1 mm 8 mps 758 mmHg 82%
    20:00 +15°C° 0.1 mm 8 mps 758 mmHg 83%
    21:00 +15°C° 0.1 mm 8 mps 758 mmHg 83%
    22:00 +15°C° 0.1 mm 8 mps 758 mmHg 82%
    23:00 +15°C° 0.1 mm 8 mps 759 mmHg 82%

    24 October, Tuesday

    Time Temperature Precipitation Wind Pressure Humidity
    00:00 +15°C° 0.1 mm 8 mps 759 mmHg 80%
    01:00 +15°C° 0.1 mm 8 mps 759 mmHg 79%
    02:00 +15°C° 0.1 mm 8 mps 759 mmHg 77%
    03:00 +15°C° 0.1 mm 8 mps 759 mmHg 76%
    04:00 +13°C° 0.1 mm 8 mps 759 mmHg 76%
    05:00 +13°C° 0.1 mm 9 mps 759 mmHg 75%
    06:00 +13°C° 0.1 mm 9 mps 760 mmHg 75%
    07:00 +13°C° 0.1 mm 9 mps 760 mmHg 75%
    08:00 +13°C° 0.1 mm 9 mps 761 mmHg 75%
    09:00 +15°C° 0.1 mm 9 mps 761 mmHg 71%
    10:00 +16°C° 0.1 mm 9 mps 761 mmHg 68%
    11:00 +16°C° 0.1 mm 9 mps 762 mmHg 65%
    12:00 +16°C° 0 mm 9 mps 762 mmHg 64%
    13:00 +16°C° 0 mm 9 mps 762 mmHg 64%
    14:00 +17°C° 0 mm 9 mps 762 mmHg 63%
    15:00 +16°C° 0 mm 9 mps 762 mmHg 66%
    16:00 +14°C° 0 mm 10 mps 762 mmHg 69%
    17:00 +13°C° 0 mm 10 mps 763 mmHg 72%
    18:00 +13°C° 0 mm 10 mps 763 mmHg 73%
    19:00 +12°C° 0 mm 10 mps 763 mmHg 73%
    20:00 +12°C° 0 mm 10 mps 764 mmHg 74%
    21:00 +12°C° 0 mm 10 mps 764 mmHg 74%
    22:00 +11°C° 0 mm 10 mps 764 mmHg 73%
    23:00 +11°C° 0 mm 10 mps 765 mmHg 72%
    Show more